Location: Jaboat�o
(8.1170°S, 35.0170°W)
Time: 08:13:05
(UTC-03:00)

Tiangong - Visible Passes

Search period start: 23 June 2024 00:00
Search period end: 03 July 2024 00:00
Orbit: 377 x 384 km, 41.5° (Epoch: 23 June)

Date Brightness Start Highest point End Pass type
(mag) Time Alt. Az. Time Alt. Az. Time Alt. Az.
26 Jun 0.1 18:55:47 10° NW 18:57:08 23° NNW 18:57:08 23° NNW visible
27 Jun 0.3 04:46:38 10° S 04:48:41 16° SE 04:50:46 10° E visible
27 Jun -0.4 17:55:19 10° N 17:57:45 20° NE 17:59:15 15° E visible
28 Jun -1.5 18:30:04 10° WNW 18:33:05 46° SW 18:33:27 43° SSW visible
29 Jun -1.0 04:21:56 28° S 04:22:55 37° SE 04:25:51 10° ENE visible
30 Jun -0.7 04:56:02 13° W 04:58:09 24° NW 05:00:46 10° NNE visible
30 Jun 0.1 18:04:44 10° W 18:07:05 19° SW 18:09:26 10° S visible
01 Jul -0.7 03:57:57 35° NE 03:57:57 35° NE 03:59:55 10° NE visible
02 Jul 0.4 04:31:56 10° NW 04:31:56 10° NW 04:32:33 10° NNW visible
